Location: Unnamed
(25.2826°S, 57.6099°W)
Time: 22:56:52
(UTC-04:00)

RS-44 - Visible Passes

Search period start: 16 March 2026 00:00
Search period end: 26 March 2026 00:00
Orbit: 1174 x 1511 km, 82.5° (Epoch: 16 March)

Date Brightness Start Highest point End Pass type
(mag) Time Alt. Az. Time Alt. Az. Time Alt. Az.
16 Mar ? 01:59:35 27° E 01:59:50 27° E 02:06:43 10° SE visible
16 Mar ? 03:52:15 50° W 03:52:45 50° W 04:01:10 10° S visible
17 Mar ? 02:24:10 44° ESE 02:24:10 44° ESE 02:31:25 10° SSE visible
17 Mar ? 04:16:50 30° WSW 04:16:50 30° WSW 04:24:06 10° SSW visible
18 Mar ? 02:48:40 59° SE 02:48:40 59° SE 02:55:33 10° S visible
18 Mar ? 04:41:19 17° WSW 04:41:19 17° WSW 04:46:09 10° SW visible
19 Mar ? 01:20:26 16° ESE 01:20:26 16° ESE 01:23:12 10° SE visible
19 Mar ? 03:13:05 51° SSW 03:13:05 51° SSW 03:19:17 10° S visible
20 Mar ? 01:44:47 24° SE 01:44:47 24° SE 01:48:39 10° SSE visible
20 Mar ? 03:37:26 34° SW 03:37:26 34° SW 03:42:36 10° S visible
21 Mar ? 02:09:05 30° SSE 02:09:05 30° SSE 02:13:10 10° SSE visible
21 Mar ? 04:01:43 21° SW 04:01:43 21° SW 04:05:21 10° SSW visible
22 Mar ? 02:33:19 32° S 02:33:19 32° S 02:37:11 10° S visible
22 Mar ? 04:25:56 12° SW 04:25:56 12° SW 04:26:54 10° SW visible
23 Mar ? 01:04:52 11° SE 01:04:52 11° SE 01:05:22 10° SE visible
23 Mar ? 02:57:30 27° S 02:57:30 27° S 03:00:48 10° S visible
24 Mar ? 01:29:01 16° SSE 01:29:01 16° SSE 01:30:30 10° SSE visible
24 Mar ? 03:21:39 19° SSW 03:21:39 19° SSW 03:23:58 10° SSW visible
25 Mar ? 01:53:08 18° SSE 01:53:08 18° SSE 01:54:51 10° SSE visible
25 Mar ? 03:45:45 12° SSW 03:45:45 12° SSW 03:46:29 10° SSW visible
